Home   Weather   Fairfield   Past weeks
Flag for USA

Past Weather in Fairfield, Tennessee, USA — Yesterday and Last 2 Weeks

Now
76 °F

Broken clouds.


Feels Like: 77 °F
Forecast: 92 / 73 °F
Wind: No wind

Location: Nashville International Airport

Current Time: Jul 6, 2020 at 8:13:38 am

Latest Report: Jul 6, 2020 at 6:53 am


Visibility: 10 mi

Pressure: 29.99 "Hg

Humidity: 82%

Dew Point: 70 °F

Location of FairfieldLocation

Past Weather in Fairfield — Graph

°F

Fairfield Temperature Yesterday

Maximum temperature yesterday: 91 °F (at 12:53 pm)
Minimum temperature yesterday: 73 °F (at 4:53 am)
Average temperature yesterday: 80 °F

High & Low Weather Summary for the Past Weeks

 TemperatureHumidityPressure
High96 °F (Jul 4, 4:53 pm)93% (Jun 23, 2:37 am)30.18 "Hg (Jun 23, 2:37 am)
Low66 °F (Jun 26, 2:53 am)33% (Jun 25, 1:53 pm)29.80 "Hg (Jun 23, 6:53 am)
Average78 °F72%29.95 "Hg
* Reported Jun 21 6:53 am — Jul 6 6:53 am, Fairfield. Weather by CustomWeather, © 2020

Note: Actual official high and low records may vary slightly from our data, if they occured in-between our weather recording intervals... More about our weather records

Fairfield Weather History for the Previous 24 Hours

Scroll right to see more
 ConditionsComfort  
Time TempWeatherWind HumidityBarometerVisibility
6:53 am
Mon, Jul 6
76 °FBroken clouds.No wind82%29.99 "Hg10 mi
5:53 am73 °FPartly sunny.3 mph88%29.97 "Hg10 mi
4:53 am73 °FScattered clouds.6 mph88%29.96 "Hg10 mi
3:53 am73 °FPassing clouds.6 mph88%29.93 "Hg10 mi
2:53 am74 °FPassing clouds.No wind85%29.93 "Hg10 mi
1:53 am75 °FPassing clouds.3 mph82%29.92 "Hg10 mi
12:53 am74 °FPassing clouds.No wind85%29.93 "Hg10 mi
11:53 pm
Sun, Jul 5
74 °FHigh level clouds.5 mph85%29.94 "Hg10 mi
10:53 pm75 °FPassing clouds.3 mph79%29.95 "Hg10 mi
9:53 pm77 °FPassing clouds.8 mph77%29.96 "Hg10 mi
8:53 pm78 °FPartly cloudy.6 mph71%29.96 "Hg10 mi
7:53 pm79 °FPartly cloudy.No wind69%29.94 "Hg10 mi
6:53 pm80 °FMostly cloudy.3 mph64%29.92 "Hg10 mi
5:53 pm81 °FMostly cloudy.10 mph62%29.91 "Hg10 mi
5:15 pm81 °FMostly cloudy.8 mph60%29.94 "Hg10 mi
4:53 pm82 °FThunderstorms. Cloudy.7 mph58%29.90 "Hg10 mi
4:18 pm81 °FThunderstorms. Cloudy.14 mph69%29.93 "Hg10 mi
3:53 pm85 °FThunderstorms. Cloudy.8 mph61%29.90 "Hg10 mi
2:53 pm86 °FThunderstorms. Broken clouds.5 mph57%29.89 "Hg10 mi
2:32 pm86 °FThundershowers. Broken clouds.10 mph57%29.93 "Hg10 mi
1:53 pm90 °FBroken clouds.No wind52%29.92 "Hg10 mi
1:41 pm90 °FThundershowers. Broken clouds.3 mph50%29.95 "Hg10 mi
12:53 pm91 °FBroken clouds.3 mph54%29.93 "Hg10 mi
11:53 am89 °FBroken clouds.3 mph57%29.95 "Hg10 mi
10:53 am85 °FBroken clouds.5 mph68%29.96 "Hg10 mi
9:53 am83 °FBroken clouds.5 mph70%29.96 "Hg10 mi
8:53 am81 °FBroken clouds.3 mph74%29.96 "Hg9 mi
Weather by CustomWeather, © 2020

See weather overview